Location: Москва
(55.7504°N, 37.6175°E)
Time: 04:04:34
(UTC+03:00)

Envisat - Pass Details

Date: 22 September 2021
Orbit: 764 x 766 km, 98.2° (Epoch: 17 October)

Event Time Altitude Azimuth Distance (km) Brightness Sun altitude
Rises 05:25:07 0° 18° (NNE) 3,247 6.7 -7.8°
Reaches altitude 10° 05:27:31 10° 24° (NNE) 2,316 6.0 -7.4°
Maximum altitude 05:32:28 49° 99° (E) 989 4.2 -6.8°
Drops below altitude 10° 05:37:22 10° 174° (S) 2,299 5.5 -6.1°
Sets 05:39:44 0° 180° (S) 3,220 6.1 -5.7°
